Tracking 19562 objects as of 24-Mar-2019
HD Live streaming from Space Station
objects crossing your sky now

BIRD MM

Track BIRD MM now!
10-day predictions
BIRD MM is classified as:


NORAD ID: 42822
Int'l Code: 1998-067MW
Perigee: 303.5 km
Apogee: 309.4 km
Inclination: 51.6 °
Period: 90.5 minutes
Semi major axis: 6677 km
RCS: Unknown
Launch date: November 20, 1998
Source: (MNG)
Launch site: TYURATAM MISSILE AND SPACE COMPLEX (TTMTR)

Uplink (MHz):
Downlink (MHz): 437.375
Beacon (MHz): 437.372
Mode: 1k2AFSK 9k6GMSK CW
Call sign: JG6YJQ
Status: Active

aabbcc
Your satellite tracking list
Your tracking list is empty




NASA's NSSDC Master Catalog

Two Line Element Set (TLE):
1 42822U 98067MW  19082.95891900 +.00101084 +14927-4 +32184-3 0  9991
2 42822 051.6302 000.2813 0004474 162.5696 197.5465 15.91061536097971
Source of the keplerian elements: AMSAT